Location: Arran
(51.9410°N, 101.7372°W)
Time: 07:46:18
(UTC+00:00)

SWISSCUBE - Pass Details

Date: 22 May 2025
Orbit: 685 x 693 km, 98.4° (Epoch: 20 June)

Event Time Altitude Azimuth Distance (km) Brightness Sun altitude
Rises 07:10:47 0° 6° (N) 3,079 ? -17.4°
Reaches altitude 10° 07:13:23 10° 353° (N) 2,158 ? -17.3°
Maximum altitude 07:17:06 24° 301° (WNW) 1,438 ? -17.2°
Drops below altitude 10° 07:20:48 10° 249° (WSW) 2,150 ? -17.1°
Enters shadow 07:20:51 10° 249° (WSW) 2,165 ? -17.1°
